Location: Gleizolles
(44.4833°N, 6.7667°E)
Time: 00:50:04
(UTC+00:00)

S-56A Canister/Altair - Pass Details

Date: 30 June 2024
Orbit: 638 x 2488 km, 38.9° (Epoch: 24 July)

Event Time Altitude Azimuth Distance (km) Brightness Sun altitude
Rises 18:56:07 0° 246° (WSW) 3,494 11.5 3.0°
Reaches altitude 10° 18:58:21 10° 241° (WSW) 2,727 10.8 2.7°
Maximum altitude 19:04:47 54° 165° (SSE) 1,511 8.8 1.7°
Drops below altitude 10° 19:14:32 10° 92° (E) 4,062 10.7 0.2°
Sets 19:18:34 0° 89° (E) 5,344 11.3 -0.4°
